Preview of NWS' New Version of Forecast
This preview is not operational and should not be used for support decisions.

Regional Weather Roundup (RWR)

Issued by National Weather Service (NWS)

                            
000
ASUS43 KLSX 201957
RWRMO 

WEATHER SUMMARY FOR MISSOURI
NATIONAL WEATHER SERVICE SPRINGFIELD MO
200 PM CST WED FEB 20 2019

NOTE: "FAIR" INDICATES FEW OR NO CLOUDS BELOW 12,000 FEET WITH NO
       SIGNIFICANT WEATHER AND/OR OBSTRUCTIONS TO VISIBILITY.
       CURRENT SKY AND/OR WEATHER CONDITIONS ARE NOT AVAILABLE FOR
       CHILLICOTHE AND FARMINGTON.

MOZ001>031-035>038-043-044-053-054-202100-
...NORTHERN AND WESTERN MISSOURI...
  
CITY           SKY/WX    TMP DP  RH WIND       PRES   REMARKS
KANSAS CTY INT PTSUNNY   35  24  64 W22G30    29.77F WCI  23          
KANSAS C DTWN  CLOUDY    37  25  61 SW16G23   29.80S WCI  28          
LEE'S SUMMIT   PTSUNNY   35  26  69 W16G26    29.80R WCI  25          
ST JOSEPH      PTSUNNY   32  25  75 W18G28    29.78S WCI  20          
CHILLICOTHE      N/A     37  28  70 W9        29.78R                  
     
$$
MOZ066>068-077>081-088>096-101>105-202100-
...SOUTHWEST MISSOURI...
  
CITY           SKY/WX    TMP DP  RH WIND       PRES   REMARKS
SPRINGFIELD    CLOUDY    41  31  67 W16       29.85R                  
JOPLIN         PTSUNNY   38  31  76 W17G23    29.88S WCI  28          
BRANSON        PTSUNNY   45  34  65 W7        29.85F                  
               
$$
MOZ032>034-039>042-045>050-055>058-069>072-202100-
...CENTRAL MISSOURI...  
  
CITY           SKY/WX    TMP DP  RH WIND       PRES   REMARKS
COLUMBIA       NOT AVBL                                               
JEFFERSON CITY CLOUDY    37  31  78 W13G23    29.84R WCI  29          
ROLLA          CLOUDY    37  30  75 W15G26    29.82F WCI  28          
SEDALIA        CLOUDY    35  30  82 SW14G24   29.82S WCI  26          
               
$$
MOZ051-052-059>065-202100-
...EAST CENTRAL MISSOURI...
  
CITY           SKY/WX    TMP DP  RH WIND       PRES   REMARKS
ST LOUIS INTL  CLOUDY    41  35  79 W16       29.81R                  
                   
$$
MOZ072>076-082>087-097>100-106>115-202100-
...SOUTH CENTRAL AND SOUTHEAST MISSOURI...
  
CITY           SKY/WX    TMP DP  RH WIND       PRES   REMARKS
CAPE GIRARDEAU CLOUDY    49  44  83 W8        29.82F                  
POPLAR BLUFF   FAIR      50  42  74 SW13      29.84S                  
WEST PLAINS    CLOUDY    43  35  73 W9        29.84F                  
                                       
$$